星链-35096 (STARLINK-35096)

导读

STARLINK-35096是美国SpaceX公司星链(Starlink)星座中的一颗低轨宽带卫星,于2025年9月3日发射入轨。作为星链全球组网阶段发射的卫星,它继承了星链成熟技术,具备低延迟通信与高带宽传输能力,助力拓展星链全球覆盖范围,为偏远地区、特殊场景提供高速互联网接入,推动星链实现全球无缝宽带覆盖的目标,目前已正常在轨运行,服务全球超600万星链用户。

基本信息
目录编号:
65479
目录名称:
STARLINK-35096
国际标识:
2025-195X
轨道中心:
EARTH
卫星名称:
星链-35096
卫星全名:
星链-35096 (STARLINK-35096)
卫星状态:
在轨 (已飞行283 天)
发射日期:
2025-09-03 UTC
国别 :
美国 (US)
星等 :
--
轨道信息
数据来源 国际轨道数据 AOE轨道数据
星历时间 2026-06-13T14:21:47+0800
7小时前
查看轨道信息
2026-06-10T07:00:00+0800
3天前
查看轨道信息
半长轴 6848.832km 6848.877km
偏心率 0.0001251 0.0001326
轨道倾角 53.157° 53.163°
近地点辐角 123.644° 102.223°
升交点赤经 173.746° 189.139°
平近点角 236.468° 13.584°
近地点 469.838km 469.831km
远地点 471.552km 471.649km
周期 94.012分钟 94.013分钟
每日圈数 15.317154 15.317001
详细信息
固有亮度:
5
最大亮度:
2.5
卫星平台:
Starlink V1.0
覆盖范围:
全球
运营商:
太空探索技术公司
运营商所在国:
美国
制造商(研发单位):
太空探索技术公司
制造商所在国:
美国
使用方式:
暂无
卫星简介
Starlink 计划是 SpaceX 推出的全球卫星互联网项目,通过发射低轨道卫星,为全球尤其是偏远地区提供高速、低延迟的互联网服务。自 2019 年起,Starlink 已部署数千颗卫星,旨在缩小全球数字鸿沟,推动互联网普及。该项目还为军事、航空等行业提供通信支持,带来广泛经济效益。
2D轨道图
3D轨道图
轨道高度分析图
轨道倾角分析图
轨道综合分析图
查看轨道综合分析图